FW3143 Weather Reports


time (UTC)temp
F
wind
direction
speed
knots
gust
knots
rain 1hr
in
rain 24hr
in
rain mn
in
humidity
%
barometer
mb
20260506162502 55 335 19.1 26.1 0.00 0.00 0.00 88 1011.0
20260506162002 55 335 19.1 26.9 0.00 0.00 0.00 88 1011.2
20260506161504 55 128 19.1 29.5 0.00 0.00 0.00 88 1011.1
20260506161003 55 122 18.2 29.5 0.00 0.00 0.00 88 1011.2
20260506160504 55 125 19.1 24.3 0.00 0.00 0.00 88 1011.2
20260506160012 55 116 18.2 24.3 0.00 0.00 0.00 88 1011.2
20260506155506 55 335 19.1 24.3 0.00 0.00 0.00 88 1011.3
20260506155003 55 335 19.1 23.5 0.00 0.00 0.00 88 1011.3
20260506154503 55 335 17.4 24.3 0.00 0.00 0.00 88 1011.4
20260506154003 55 335 17.4 24.3 0.00 0.00 0.00 88 1011.4
20260506153503 55 335 19.1 25.2 0.00 0.00 0.00 88 1011.5
20260506153017 56 335 18.2 25.2 0.00 0.00 0.00 88 1011.5
20260506152503 56 335 19.1 26.1 0.00 0.00 0.00 88 1011.6
20260506152008 56 124 19.1 26.1 0.00 0.00 0.00 88 1011.5
20260506151516 56 335 19.1 27.8 0.00 0.00 0.00 88 1011.5
20260506151008 56 335 20.0 27.8 0.00 0.00 0.00 88 1011.5
20260506150502 56 335 20.0 26.1 0.00 0.00 0.00 88 1011.5
20260506150004 56 335 20.0 26.9 0.00 0.00 0.00 88 1011.4
20260506145504 56 335 19.1 26.9 0.00 0.00 0.00 88 1011.3
20260506145004 56 335 19.1 26.9 0.00 0.00 0.00 88 1011.3
20260506144515 56 335 20.0 25.2 0.00 0.00 0.00 88 1011.3
20260506144007 55 119 19.1 25.2 0.00 0.00 0.00 88 1011.4
20260506143505 56 146 19.1 23.5 0.00 0.00 0.00 88 1011.4
20260506143023 56 335 18.2 25.2 0.00 0.00 0.00 88 1011.5
20260506142503 56 335 19.1 25.2 0.00 0.00 0.00 88 1011.5
20260506142003 56 151 19.1 25.2 0.00 0.00 0.00 87 1011.7
20260506141504 56 335 18.2 25.2 0.00 0.00 0.00 87 1011.7
20260506141007 56 335 18.2 26.1 0.00 0.00 0.00 87 1011.7
20260506140506 56 335 17.4 26.1 0.00 0.00 0.00 88 1011.8
20260506140016 56 335 18.2 25.2 0.00 0.00 0.00 88 1011.7
20260506135507 56 335 19.1 25.2 0.00 0.00 0.00 88 1011.7
20260506135009 56 335 17.4 26.1 0.00 0.00 0.00 88 1011.8
20260506134523 56 335 19.1 26.1 0.00 0.00 0.00 88 1012.0
20260506134003 56 335 19.1 25.2 0.00 0.00 0.00 88 1011.9
20260506133504 56 335 19.1 28.7 0.00 0.00 0.00 88 1011.9
20260506133008 55 121 18.2 28.7 0.00 0.00 0.00 88 1012.0
20260506132506 55 335 17.4 24.3 0.00 0.00 0.00 88 1011.8
20260506132005 55 335 17.4 23.5 0.00 0.00 0.00 89 1011.9
20260506131529 55 335 17.4 25.2 0.00 0.00 0.00 89 1011.8
20260506131007 55 335 18.2 25.2 0.00 0.00 0.00 89 1011.8
20260506130507 55 335 17.4 23.5 0.00 0.00 0.00 89 1011.8
20260506130028 55 335 17.4 22.6 0.00 0.00 0.00 89 1011.7
20260506125503 55 335 16.5 22.6 0.00 0.00 0.00 89 1011.7
20260506125003 55 335 16.5 22.6 0.00 0.00 0.00 89 1011.8
20260506124510 55 335 17.4 22.6 0.00 0.00 0.00 89 1011.8
20260506124006 55 335 15.6 23.5 0.00 0.00 0.00 89 1011.8
20260506123507 55 335 16.5 23.5 0.00 0.00 0.00 89 1011.9
20260506123020 55 335 15.6 22.6 0.00 0.00 0.00 89 1012.0
20260506122507 55 136 15.6 23.5 0.00 0.00 0.00 89 1011.9
20260506122010 55 335 18.2 23.5 0.00 0.00 0.00 89 1011.9
20260506121504 55 335 16.5 27.8 0.00 0.00 0.00 89 1012.0
20260506121004 55 335 16.5 27.8 0.00 0.00 0.00 89 1012.1
20260506120503 55 335 17.4 22.6 0.00 0.00 0.00 89 1012.1
20260506120019 55 335 15.6 24.3 0.00 0.00 0.00 90 1012.2
20260506115506 55 335 16.5 24.3 0.00 0.00 0.00 90 1012.1
20260506115007 55 335 15.6 24.3 0.00 0.00 0.00 90 1012.1
20260506114528 55 335 16.5 26.1 0.00 0.00 0.00 90 1012.0
20260506114008 55 335 16.5 26.1 0.00 0.00 0.00 90 1011.9
20260506113510 55 335 16.5 22.6 0.00 0.00 0.00 90 1011.9
20260506113023 55 335 16.5 20.9 0.00 0.00 0.00 90 1011.9
20260506112504 54 335 16.5 20.9 0.00 0.00 0.00 90 1011.8
20260506112005 54 335 16.5 22.6 0.00 0.00 0.00 90 1011.9
20260506111520 54 335 15.6 22.6 0.00 0.00 0.00 90 1012.0
20260506111008 54 335 18.2 25.2 0.00 0.00 0.00 90 1012.2
20260506110509 54 335 17.4 25.2 0.00 0.00 0.00 90 1012.2
20260506110026 54 335 17.4 24.3 0.00 0.00 0.00 90 1012.1
20260506105506 54 335 16.5 24.3 0.00 0.00 0.00 90 1012.1
20260506105004 54 335 17.4 23.5 0.00 0.00 0.00 90 1012.0
20260506104513 54 335 15.6 23.5 0.00 0.00 0.00 90 1011.9
20260506104003 54 335 18.2 23.5 0.00 0.00 0.00 90 1011.8
20260506103506 54 335 17.4 23.5 0.00 0.00 0.00 90 1011.8
20260506103026 54 335 18.2 25.2 0.00 0.00 0.00 90 1011.9
20260506102506 54 335 19.1 25.2 0.00 0.00 0.00 90 1011.9
20260506102009 54 335 17.4 24.3 0.00 0.00 0.00 90 1012.0
20260506101528 54 124 18.2 25.2 0.00 0.00 0.00 90 1011.9
20260506101008 54 335 19.1 25.2 0.00 0.00 0.00 90 1011.9
20260506100508 54 335 17.4 23.5 0.00 0.00 0.00 90 1011.9
20260506100018 54 118 18.2 24.3 0.00 0.00 0.00 90 1011.9
20260506095507 54 148 17.4 24.3 0.00 0.00 0.00 90 1011.9
20260506095008 54 335 17.4 26.1 0.00 0.00 0.00 90 1011.9
20260506094526 54 146 18.2 26.1 0.00 0.00 0.00 90 1012.1
20260506094007 54 335 18.2 27.8 0.00 0.00 0.00 90 1011.9
20260506093507 54 335 19.1 27.8 0.00 0.00 0.00 90 1011.9
20260506093029 54 154 17.4 27.8 0.00 0.00 0.00 90 1011.9
20260506092504 55 335 18.2 26.1 0.00 0.00 0.00 90 1011.8
20260506092007 55 129 18.2 26.1 0.00 0.00 0.00 90 1011.8
20260506091522 55 335 18.2 26.1 0.00 0.00 0.00 90 1011.9
20260506091008 55 123 19.1 26.1 0.00 0.00 0.00 90 1011.9
20260506090502 55 335 18.2 26.1 0.00 0.00 0.00 90 1012.0
20260506090005 55 335 20.0 26.1 0.00 0.00 0.00 90 1012.0
20260506085502 55 335 19.1 26.1 0.00 0.00 0.00 90 1012.0
20260506085003 55 335 20.0 26.9 0.00 0.00 0.00 90 1011.9
20260506084503 55 335 19.1 27.8 0.00 0.00 0.00 89 1012.0
20260506084005 55 124 20.9 27.8 0.00 0.00 0.00 89 1012.0
20260506083503 55 335 20.0 26.9 0.00 0.00 0.00 89 1012.1
20260506083004 55 134 20.0 26.9 0.00 0.00 0.00 89 1012.1
20260506082502 55 335 20.9 26.9 0.00 0.00 0.00 89 1012.0
20260506082005 55 335 20.9 27.8 0.00 0.00 0.00 89 1012.1
20260506081504 55 147 20.9 28.7 0.00 0.00 0.00 89 1012.1
20260506081002 55 335 20.9 28.7 0.00 0.00 0.00 89 1012.1
20260506080504 55 140 20.9 32.2 0.00 0.00 0.00 89 1012.1
20260506073502 55 335 20.0 28.7 0.00 0.00 0.00 88 1012.3
20260506073003 55 335 20.9 28.7 0.00 0.00 0.00 88 1012.3
20260506072504 55 335 20.9 26.9 0.00 0.00 0.00 88 1012.4
20260506072002 55 335 20.9 28.7 0.00 0.00 0.00 88 1012.4
20260506071505 55 335 20.9 28.7 0.00 0.00 0.00 88 1012.4
20260506071003 55 335 20.9 28.7 0.00 0.00 0.00 88 1012.4
20260506070503 55 335 20.0 29.5 0.00 0.00 0.00 88 1012.5
20260506062503 55 150 20.9 29.5 0.00 0.00 0.00 87 1012.4
20260506062002 55 156 20.9 29.5 0.00 0.00 0.00 87 1012.4
20260506061509 55 335 22.6 32.2 0.00 0.00 0.00 87 1012.4
20260506061007 55 335 21.7 32.2 0.00 0.00 0.00 87 1012.4
20260506060504 55 335 22.6 33.0 0.00 0.00 0.00 86 1012.3
20260506051003 56 159 26.1 36.5 0.00 0.00 0.00 86 1012.7
20260506050503 56 335 26.1 36.5 0.00 0.00 0.00 86 1012.7
20260506045005 56 335 25.2 33.0 0.00 0.00 0.00 86 1012.7
20260506044510 56 335 23.5 36.5 0.00 0.00 0.00 86 1012.7
20260506044004 56 335 25.2 36.5 0.00 0.00 0.00 86 1012.8
20260506043503 56 335 25.2 33.0 0.00 0.00 0.00 86 1012.8
20260506043014 56 335 23.5 33.9 0.00 0.00 0.00 86 1012.8
20260506042503 56 141 23.5 33.9 0.00 0.00 0.00 86 1012.8
20260506042003 56 335 23.5 33.0 0.00 0.00 0.00 86 1012.8
20260506041510 56 335 21.7 31.3 0.00 0.00 0.00 85 1012.9
20260506041003 56 335 22.6 33.9 0.00 0.00 0.00 85 1012.9
20260506040504 56 134 24.3 34.8 0.00 0.00 0.00 85 1012.9
20260506040019 56 335 24.3 34.8 0.00 0.00 0.00 85 1012.8
20260506035507 56 148 23.5 33.0 0.00 0.00 0.00 85 1012.8
20260506035004 56 146 23.5 34.8 0.00 0.00 0.00 85 1012.8
20260506034519 56 141 22.6 37.4 0.00 0.00 0.00 85 1012.7
20260506034003 56 146 26.9 37.4 0.00 0.00 0.00 85 1012.7
20260506033504 56 335 26.9 37.4 0.00 0.00 0.00 84 1012.6
20260506033014 56 155 26.9 37.4 0.00 0.00 0.00 84 1012.5
20260506032502 56 335 25.2 40.0 0.00 0.00 0.00 84 1012.4
20260506032007 56 335 28.7 40.0 0.00 0.00 0.00 84 1012.5
20260506031514 56 150 27.8 36.5 0.00 0.00 0.00 84 1012.4
20260506031004 56 145 28.7 36.5 0.00 0.00 0.00 84 1012.3
20260506030507 56 335 26.1 35.6 0.00 0.00 0.00 85 1012.5
20260506030026 56 132 26.1 32.2 0.00 0.00 0.00 85 1012.5
20260506025504 56 335 23.5 32.2 0.00 0.00 0.00 85 1012.5
20260506025004 56 130 21.7 33.0 0.00 0.00 0.00 85 1012.6
20260506024523 56 143 24.3 33.0 0.00 0.00 0.00 85 1012.7
20260506024004 56 335 23.5 34.8 0.00 0.00 0.00 84 1012.7
20260506023504 56 335 26.1 34.8 0.00 0.00 0.00 84 1012.6
20260506023016 56 143 26.1 36.5 0.00 0.00 0.00 84 1012.6
20260506022509 56 141 26.1 36.5 0.00 0.00 0.00 84 1012.6
20260506022006 56 335 24.3 37.4 0.00 0.00 0.00 84 1012.7
20260506021512 56 335 26.1 37.4 0.00 0.00 0.00 84 1012.7
20260506021006 56 335 23.5 32.2 0.00 0.00 0.00 84 1012.7
20260506020503 56 335 22.6 33.9 0.00 0.00 0.00 84 1012.7
20260506020016 56 143 25.2 35.6 0.00 0.00 0.00 84 1012.5
20260506015504 57 155 24.3 35.6 0.00 0.00 0.00 84 1012.6
20260506015005 57 335 23.5 33.0 0.00 0.00 0.00 84 1012.5
20260506014520 56 148 21.7 33.0 0.00 0.00 0.00 83 1012.4
20260506014004 57 335 20.0 33.0 0.00 0.00 0.00 83 1012.3
20260506013505 57 335 22.6 33.0 0.00 0.00 0.00 83 1012.5
20260506013023 57 335 23.5 33.0 0.00 0.00 0.00 83 1012.4
20260506012504 57 150 20.0 30.4 0.00 0.00 0.00 83 1012.3
20260506012009 57 335 22.6 33.0 0.00 0.00 0.00 82 1012.3
20260506011520 57 140 25.2 34.8 0.00 0.00 0.00 82 1012.3
20260506011008 57 335 25.2 36.5 0.00 0.00 0.00 82 1012.2
20260506010506 57 335 23.5 37.4 0.00 0.00 0.00 82 1012.2
20260506010024 57 335 26.1 40.0 0.00 0.00 0.00 81 1012.2
20260506005503 57 335 23.5 40.0 0.00 0.00 0.00 81 1012.2
20260506005005 57 335 26.1 35.6 0.00 0.00 0.00 81 1012.2
20260506004516 57 335 23.5 36.5 0.00 0.00 0.00 80 1012.1
20260506004005 58 130 26.9 36.5 0.00 0.00 0.00 80 1012.1
20260506003504 58 335 27.8 42.6 0.00 0.00 0.00 80 1012.0
20260506003020 58 335 30.4 42.6 0.00 0.00 0.00 80 1011.9
20260506002505 58 153 30.4 40.8 0.00 0.00 0.00 80 1011.9
20260506002008 58 151 28.7 37.4 0.00 0.00 0.00 80 1011.9
20260506001522 58 335 26.1 33.9 0.00 0.00 0.00 80 1011.8
20260506001005 58 145 24.3 33.0 0.00 0.00 0.00 80 1011.7
20260506000505 58 335 24.3 33.9 0.00 0.00 0.00 80 1011.6
20260506000022 58 130 23.5 33.9 0.00 0.00 0.00 80 1011.6
20260505235507 58 130 24.3 33.9 0.00 0.00 0.00 80 1011.6
20260505235006 58 125 23.5 35.6 0.00 0.00 0.00 81 1011.5
20260505234523 57 138 23.5 35.6 0.00 0.00 0.00 81 1011.4
20260505234011 57 138 23.5 33.9 0.00 0.00 0.00 81 1011.3
20260505233507 57 335 23.5 33.9 0.00 0.00 0.00 81 1011.2
20260505233022 57 155 25.2 33.9 0.00 0.00 0.00 81 1011.1
20260505232505 57 335 21.7 31.3 0.00 0.00 0.00 81 1011.1
20260505232006 58 148 21.7 35.6 0.00 0.00 0.00 81 1011.1
20260505231522 58 335 22.6 35.6 0.00 0.00 0.00 80 1011.0
20260505231013 58 153 21.7 33.9 0.00 0.00 0.00 80 1011.0
20260505230506 58 335 22.6 33.9 0.00 0.00 0.00 80 1010.9
20260505230036 58 335 23.5 33.9 0.00 0.00 0.00 80 1010.9
20260505225506 58 134 24.3 33.9 0.00 0.00 0.00 80 1010.8
20260505225006 58 135 25.2 33.9 0.00 0.00 0.00 80 1010.8
20260505224515 58 335 25.2 34.8 0.00 0.00 0.00 80 1010.6
20260505224011 58 150 24.3 34.8 0.00 0.00 0.00 80 1010.7
20260505223506 58 335 23.5 34.8 0.00 0.00 0.00 80 1010.6
20260505223028 59 335 26.1 42.6 0.00 0.00 0.00 79 1010.7
20260505222509 59 125 27.8 42.6 0.00 0.00 0.00 79 1010.7
20260505222009 59 124 26.1 39.1 0.00 0.00 0.00 79 1010.5
20260505221523 59 159 25.2 33.9 0.00 0.00 0.00 79 1010.5
20260505221010 59 335 24.3 33.9 0.00 0.00 0.00 79 1010.5
20260505220506 59 335 22.6 35.6 0.00 0.00 0.00 79 1010.5
20260505220018 58 335 23.5 35.6 0.00 0.00 0.00 79 1010.6
20260505215511 58 335 21.7 34.8 0.00 0.00 0.00 79 1010.6
20260505215007 58 130 22.6 34.8 0.00 0.00 0.00 80 1010.6
20260505214525 58 335 21.7 32.2 0.00 0.00 0.00 80 1010.5
20260505214006 58 335 22.6 36.5 0.00 0.00 0.00 79 1010.4
20260505213507 59 335 22.6 36.5 0.00 0.00 0.00 79 1010.3
20260505213028 58 168 21.7 30.4 0.00 0.00 0.00 79 1010.2
20260505212512 58 143 23.5 29.5 0.00 0.00 0.00 79 1010.1
20260505212007 59 335 21.7 33.9 0.00 0.00 0.00 79 1010.1
20260505211522 58 130 23.5 33.9 0.00 0.00 0.00 79 1010.0
20260505211008 58 335 22.6 33.0 0.00 0.00 0.00 79 1010.1
20260505210508 58 335 22.6 32.2 0.00 0.00 0.00 79 1010.1
20260505210023 58 335 21.7 32.2 0.00 0.00 0.00 79 1010.1
20260505205509 59 335 23.5 29.5 0.00 0.00 0.00 79 1010.1
20260505205011 58 335 23.5 30.4 0.00 0.00 0.00 79 1010.0
20260505204528 58 136 23.5 30.4 0.00 0.00 0.00 80 1009.9
20260505204009 58 128 21.7 30.4 0.00 0.00 0.00 80 1010.0
20260505203506 58 124 22.6 30.4 0.00 0.00 0.00 80 1010.0
20260505203039 58 130 23.5 29.5 0.00 0.00 0.00 80 1010.0
20260505202508 58 128 20.9 28.7 0.00 0.00 0.00 80 1010.0
20260505202009 58 335 22.6 29.5 0.00 0.00 0.00 81 1010.0
20260505201527 58 335 22.6 29.5 0.00 0.00 0.00 81 1010.0
20260505201007 58 335 21.7 27.8 0.00 0.00 0.00 81 1010.1
20260505200504 58 335 19.1 26.1 0.00 0.00 0.00 81 1010.2
20260505200031 58 335 20.0 25.2 0.00 0.00 0.00 81 1010.3
20260505195502 58 335 17.4 25.2 0.00 0.00 0.00 81 1010.4
20260505195003 58 335 18.2 24.3 0.00 0.00 0.00 81 1010.5
20260505194506 58 335 18.2 26.9 0.00 0.00 0.00 81 1010.5
20260505194005 58 123 20.0 26.9 0.00 0.00 0.00 81 1010.4
20260505193504 58 121 19.1 25.2 0.00 0.00 0.00 81 1010.6
20260505193011 58 123 19.1 25.2 0.00 0.00 0.00 81 1010.7
20260505192510 58 119 17.4 22.6 0.00 0.00 0.00 81 1010.7
20260505192008 58 335 16.5 24.3 0.00 0.00 0.00 81 1010.8
20260505191504 58 127 17.4 24.3 0.00 0.00 0.00 81 1010.9
20260505191003 58 335 16.5 21.7 0.00 0.00 0.00 81 1010.9
20260505190507 58 116 16.5 25.2 0.00 0.00 0.00 81 1011.2
20260505190008 58 335 18.2 25.2 0.00 0.00 0.00 81 1011.2
20260505185503 58 133 17.4 24.3 0.00 0.00 0.00 82 1011.2
20260505185007 58 119 18.2 22.6 0.00 0.00 0.00 81 1011.4
20260505184523 58 111 16.5 25.2 0.00 0.00 0.00 82 1011.5
20260505184009 58 118 16.5 25.2 0.00 0.00 0.00 82 1011.6
20260505183506 58 133 17.4 23.5 0.00 0.00 0.00 82 1011.6
20260505183005 58 130 16.5 20.9 0.00 0.00 0.00 82 1011.6
20260505182503 58 335 17.4 21.7 0.00 0.00 0.00 82 1011.6
20260505182003 58 114 14.8 21.7 0.00 0.00 0.00 82 1011.8
20260505181512 58 121 15.6 20.0 0.00 0.00 0.00 82 1011.8
20260505181004 58 137 14.8 20.0 0.00 0.00 0.00 82 1011.8
20260505180514 58 134 13.9 19.1 0.00 0.00 0.00 82 1011.9
20260505180020 58 128 14.8 18.2 0.00 0.00 0.00 82 1011.9
20260505175508 58 108 13.0 19.1 0.00 0.00 0.00 82 1012.0
20260505175007 58 118 13.0 19.1 0.00 0.00 0.00 82 1012.1
20260505174508 57 124 13.0 19.1 0.00 0.00 0.00 82 1012.2
20260505174004 57 141 13.0 18.2 0.00 0.00 0.00 82 1012.2
20260505173507 57 138 13.0 18.2 0.00 0.00 0.00 82 1012.2
20260505173034 57 132 13.9 18.2 0.00 0.00 0.00 82 1012.1
20260505172505 57 136 13.0 18.2 0.00 0.00 0.00 83 1012.2
20260505172008 57 127 13.0 18.2 0.00 0.00 0.00 83 1012.3
20260505171523 57 335 13.0 17.4 0.00 0.00 0.00 83 1012.2
20260505171010 57 335 13.0 18.2 0.00 0.00 0.00 83 1012.3
20260505170503 57 335 12.2 18.2 0.00 0.00 0.00 83 1012.3
20260505170013 57 335 13.0 18.2 0.00 0.00 0.00 82 1012.3
20260505165503 57 130 13.0 18.2 0.00 0.00 0.00 82 1012.3
20260505165006 57 335 12.2 17.4 0.00 0.00 0.00 82 1012.4
20260505164540 58 125 11.3 16.5 0.00 0.00 0.00 82 1012.5
20260505164007 58 123 11.3 14.8 0.00 0.00 0.00 81 1012.5
20260505163508 58 117 9.6 13.0 0.00 0.00 0.00 82 1012.6
20260505163025 58 120 9.6 13.0 0.00 0.00 0.00 81 1012.7